Flag Weather past 2 weeks in Wroclaw, Poland

Now
45 °F

Scattered clouds.


Feels Like: 43 °F
Forecast: 36 / 43 °F
Wind: 3 mph from Southeast

Location: Wroclaw Ii

Current Time: Nov 24, 2014 at 3:08:12 PM

Latest Report: Nov 24, 2014 at 2:30 PM


Visibility: N/A

Pressure: 30.18 "Hg

Humidity: 81%

Dew point: 39 °F

Location of WroclawLocation

Historic Weather in Wroclaw — Graph

°F

Wroclaw temperature yesterday

Maximum temperature yesterday: 48 °F (at 1:00 PM)
Minimum temperature yesterday: 36 °F (at 5:00 AM)
Average temperature yesterday: 42 °F

Past Weeks' High & Low Weather Summary

 TemperatureHumidityPressure
High64 °F (Nov 12, 12:30 PM)100% (Nov 17, 10:30 AM)30.33 "Hg (Nov 17, 10:30 AM)
Low36 °F (Nov 17, 5:30 AM)60% (Nov 12, 12:30 PM)29.65 "Hg (Nov 16, 6:30 AM)
Average47 °F88%30.01 "Hg
* Reported Nov 9 2:00 PM — Nov 24 2:00 PM, Wroclaw, Weather by CustomWeather, © 2014

Note: Actual official high and low records may vary slightly from our data, if they occured in-between our weather recording intervals... More about our weather records

Advertising

Wroclaw weather history for previous 24 hours

 ConditionsComfort  
Time TempWeatherWind HumidityBarometerVisibility
2:00 PM
Nov 24
45 °FSunny.5 mph76%30.21 "Hg10 mi
1:30 PM45 °FSunny.8 mph81%30.18 "Hg10 mi
1:00 PM43 °FSunny.9 mph81%30.18 "Hg10 mi
12:30 PM43 °FSunny.10 mph81%30.18 "Hg10 mi
12:00 PM43 °FSunny.10 mph81%30.21 "Hg10 mi
11:30 AM41 °FSunny.10 mph81%30.21 "Hg10 mi
11:00 AM41 °FSunny.16 mph81%30.18 "Hg10 mi
10:30 AM39 °FSunny.18 mph87%30.18 "Hg10 mi
10:00 AM39 °FSunny.18 mph81%30.18 "Hg10 mi
9:30 AM37 °FSunny.18 mph87%30.18 "Hg10 mi
9:00 AM37 °FSunny.20 mph87%30.18 "Hg10 mi
8:30 AM37 °FSunny.18 mph87%30.18 "Hg10 mi
8:00 AM37 °FClear.14 mph87%30.21 "Hg5 mi
7:30 AM37 °FClear.16 mph87%30.18 "Hg6 mi
7:00 AM37 °FClear.15 mph87%30.21 "Hg6 mi
6:30 AM37 °FClear.16 mph87%30.21 "Hg5 mi
6:00 AM37 °FClear.15 mph87%30.21 "Hg5 mi
5:30 AM37 °FClear.15 mph87%30.21 "Hg5 mi
5:00 AM37 °FClear.16 mph87%30.21 "Hg5 mi
4:30 AM37 °FClear.14 mph87%30.21 "Hg5 mi
4:00 AM39 °FClear.14 mph81%30.24 "Hg5 mi
3:30 AM39 °FClear.14 mph81%30.24 "Hg5 mi
3:00 AM37 °FClear.12 mph87%30.24 "Hg5 mi
2:30 AM39 °FClear.12 mph81%30.24 "Hg5 mi
2:00 AM39 °FClear.13 mph87%30.27 "Hg10 mi
1:30 AM39 °FClear.14 mph87%30.27 "Hg10 mi
1:00 AM39 °FClear.14 mph87%30.27 "Hg5 mi
12:30 AM39 °FClear.16 mph87%30.27 "Hg5 mi
12:00 AM39 °FClear.16 mph87%30.27 "Hg5 mi
11:30 PM
Nov 23
39 °FClear.15 mph87%30.30 "Hg4 mi
11:00 PM39 °FClear.14 mph87%30.30 "Hg5 mi
10:30 PM39 °FClear.12 mph87%30.30 "Hg5 mi
10:00 PM41 °FClear.12 mph87%30.30 "Hg10 mi
9:30 PM41 °FClear.13 mph87%30.30 "Hg10 mi
9:00 PM41 °FClear.12 mph81%30.30 "Hg10 mi
8:30 PM41 °FClear.12 mph87%30.30 "Hg10 mi
8:00 PM41 °FClear.10 mph87%30.30 "Hg10 mi
7:30 PM41 °FClear.10 mph87%30.30 "Hg10 mi
7:00 PM41 °FClear.12 mph87%30.30 "Hg10 mi
6:30 PM43 °FClear.13 mph81%30.30 "Hg10 mi
6:00 PM43 °FClear.10 mph81%30.30 "Hg10 mi
5:30 PM43 °FClear.10 mph87%30.30 "Hg10 mi
5:00 PM43 °FClear.10 mph87%30.30 "Hg10 mi
4:30 PM43 °FClear.8 mph87%30.30 "Hg10 mi
4:00 PM45 °FClear.8 mph87%30.30 "Hg10 mi
3:30 PM46 °FSunny.10 mph76%30.30 "Hg10 mi
3:00 PM46 °FSunny.12 mph76%30.30 "Hg10 mi
Weather by CustomWeather, © 2014

See weather overviewHow to use our weather pages